Location: Central Coast NSW, Australia
(33.2407°S, 151.4316°E)
Time: 12:15:09
(UTC+11:00)

Envisat - Visible Passes

Search period start: 23 March 2019 00:00
Search period end: 02 April 2019 00:00
Orbit: 764 x 766 km, 98.2° (Epoch: 22 March)

Date Brightness Start Highest point End Pass type
(mag) Time Alt. Az. Time Alt. Az. Time Alt. Az.
23 Mar 5.9 06:29:17 10° ENE 06:32:40 18° ESE 06:36:04 10° SSE visible
23 Mar 3.0 20:19:23 10° SSE 20:24:32 90° E 20:29:38 10° NNW visible
24 Mar 3.5 19:43:00 10° SSE 19:47:45 37° E 19:52:26 10° NNE visible
24 Mar 5.4 21:22:39 10° SSW 21:26:27 21° WSW 21:30:15 10° WNW visible
25 Mar 3.9 20:45:03 10° S 20:50:00 49° WSW 20:54:53 10° NNW visible
26 Mar 6.1 06:18:59 10° E 06:21:35 14° ESE 06:24:11 10° SE visible
26 Mar 2.9 20:08:11 10° SSE 20:13:20 70° ENE 20:18:24 10° N visible
26 Mar 6.1 21:49:56 10° SW 21:51:41 12° WSW 21:53:25 10° W visible
27 Mar 3.8 19:32:03 10° SE 19:36:29 29° E 19:40:50 10° NNE visible
27 Mar 5.0 21:11:05 10° SSW 21:15:21 27° WSW 21:19:35 10° NW visible
28 Mar 3.4 20:33:44 10° S 20:38:49 64° WSW 20:43:51 10° NNW visible
29 Mar 6.4 06:09:20 10° ESE 06:10:31 11° ESE 06:11:41 10° SE visible
29 Mar 3.1 19:57:04 10° SSE 20:02:06 53° E 20:07:04 10° N visible
29 Mar 5.8 21:37:44 10° SSW 21:40:36 15° WSW 21:43:28 10° W visible
30 Mar 4.1 19:21:14 10° SE 19:25:12 22° E 19:29:06 10° NE visible
30 Mar 4.6 20:59:36 10° S 21:04:13 34° WSW 21:08:47 10° NW visible
31 Mar 5.8 06:32:05 10° ENE 06:35:43 20° ESE 06:39:22 10° SSE visible
31 Mar 3.0 20:22:28 10° S 20:27:38 82° WSW 20:32:43 10° NNW visible
01 Apr 3.4 19:46:01 10° SSE 19:50:52 41° E 19:55:38 10° NNE visible
01 Apr 5.5 21:25:56 10° SSW 21:29:31 19° WSW 21:33:05 10° WNW visible
